Location: Julian California
(33.0790°N, 116.6010°W)
Time: 03:01:06
(UTC-07:00)

Daily predictions for brighter satellites

Satellite Brightness Start Highest point End
(mag) Time Altitude Azimuth Time Altitude Azimuth Time Altitude Azimuth
Cosmos 2219 Rocket 3.7 03:56:01 32° E 03:56:01 32° E 04:00:05 10° NE
COSMOS 2455 4.2 03:58:34 32° NNE 03:58:34 32° NNE 04:01:39 10° NNE
COSMOS 2428 3.8 04:06:34 41° E 04:06:34 41° E 04:11:17 10° NE
ATLAS 2AS CENTAUR R/B 4.0 04:06:01 25° SSE 04:10:06 43° ESE 04:17:33 10° NE
Cosmos 2360 Rocket 4.2 04:28:55 17° N 04:28:55 17° N 04:30:16 10° N
Cosmos 1709 Rocket 3.9 04:26:57 78° SE 04:27:15 81° E 04:33:34 10° N
IDEFIX/ARIANE 42P 3.2 04:33:12 10° N 04:36:51 46° N 04:36:51 46° N
Aureole 1 Rocket 4.1 04:35:16 36° S 04:38:31 82° ESE 04:44:25 10° NNE
CZ-2C R/B 3.4 04:43:02 10° NNE 04:48:02 47° E 04:52:58 10° S
H-2A R/B 3.3 04:48:00 10° NNE 04:50:48 43° NNE 04:50:48 43° NNE
Cosmos 1844 Rocket 2.5 04:50:15 32° NNW 04:52:56 90° ENE 04:58:29 10° SSE
MSX 3.7 04:48:55 10° NNE 04:54:39 90° W 04:59:27 15° SSW
Cosmos 1025 Rocket 3.2 04:55:17 38° SSE 04:56:46 68° E 05:01:00 10° NNE
Meteor 1-22 Rocket 4.1 04:51:42 10° N 04:57:03 78° E 05:02:17 10° SSE
Meteor 1-21 4.4 04:51:54 10° S 04:57:25 70° E 05:02:58 10° NNE
Cosmos 2333 Rocket 2.1 04:58:49 60° W 04:59:08 61° WNW 05:04:45 10° NNE
PAYLOAD A 3.9 04:55:06 10° NNE 04:59:56 80° ESE 05:04:57 10° S
Cosmos 1992 Rocket 4.4 04:55:25 10° N 05:00:34 62° ENE 05:05:42 10° SSE
Cosmos 1536 Rocket 3.3 05:05:45 74° WSW 05:06:00 77° W 05:10:19 10° N
Cosmos 2278 Rocket 4.3 05:03:18 10° N 05:08:00 26° ENE 05:12:41 10° ESE
Milstar 3 Cent rocket 4.0 05:05:11 14° SSW 05:08:03 20° SSE 05:11:30 10° ESE
Cosmos 1844 3.6 05:05:59 10° NNW 05:11:47 80° WSW 05:17:31 10° SSE
Cosmos 2181 Rocket 3.9 05:07:15 10° N 05:13:37 82° W 05:19:50 10° S
Milstar 3 4.2 05:11:30 12° SSW 05:16:38 28° SSE 05:22:27 10° E
Meteor 1-31 Rocket 2.7 05:14:57 10° NNE 05:18:45 82° E 05:22:32 10° S
NOSS 3-4 (A) 3.4 05:14:51 11° SSW 05:20:32 82° ESE 05:26:43 10° NNE
NOSS 0 Rocket 3.8 05:14:26 10° SSW 05:20:35 86° WNW 05:26:47 10° NNE
NOSS 3-4 (C) 3.4 05:14:47 11° SSW 05:20:38 81° ESE 05:26:50 10° NNE
USA 234 3.2 05:16:31 10° SE 05:23:02 74° SW 05:28:43 14° NW
GPS 2-05 Rocket1 2.2 05:27:10 76° ENE 05:27:10 76° ENE 05:29:45 10° ESE
Cosmos 1470 3.7 05:23:55 10° N 05:27:43 49° E 05:31:28 10° SSE
Cosmos 1707 3.2 05:25:20 10° S 05:29:09 61° E 05:33:01 10° NNE
Celestis-02/Orion 38 4.5 05:25:29 10° SSE 05:30:31 64° WSW 05:35:42 10° NNW
BREEZE-M DEB (TANK) 2.1 05:31:50 22° NW 05:34:14 67° NNE 05:36:33 10° ESE
Cosmos 1733 3.3 05:30:48 10° NNW 05:34:33 50° W 05:38:14 10° S
ERBS 3.0 05:35:41 34° NW 05:35:45 34° NW 05:38:52 10° NNE
Cosmos 1484 Rocket 3.6 05:32:59 10° NNE 05:36:41 51° E 05:40:24 10° S
Cosmos 1190 Rocket 4.0 05:32:28 10° SSW 05:37:46 90° E 05:43:04 10° NNE
Meteor PRIRODA 3.6 05:34:20 10° NNE 05:38:05 90° W 05:41:48 10° SSW
Cosmos 389 Rocket 2.4 05:35:30 10° S 05:38:54 81° E 05:42:19 10° N
Cosmos 2219 Rocket 3.1 05:37:48 25° W 05:39:02 27° WNW 05:43:43 10° N
COSMOS 2455 4.4 05:41:46 15° NW 05:42:11 15° NW 05:45:38 10° NNW
Cosmos 407 Rocket 3.4 05:37:19 10° SSW 05:42:27 71° WNW 05:47:34 10° NNE
Cosmos 2237 Rocket 2.1 05:37:37 10° SSW 05:43:14 70° WNW 05:48:55 10° NNE
USA 32 4.2 05:40:43 10° SSW 05:45:42 46° W 05:50:43 10° N
CZ-4B R/B 3.2 05:44:11 10° N 05:47:58 41° WNW 05:51:34 10° SW
COSMOS 2428 3.9 05:48:39 19° W 05:50:21 22° WNW 05:54:42 10° N
SeaSat 1 4.1 05:46:15 10° NE 05:50:47 37° ESE 05:55:19 10° S
ATLAS 3B R/B 4.1 05:46:35 10° NNW 05:52:45 37° NE 05:59:02 10° ESE
Delta 142 4.1 05:54:30 17° WSW 05:57:27 41° S 06:01:16 10° ESE
Cosmos 1980 4.0 05:54:11 10° SW 05:59:35 46° WNW 06:04:59 10° N
ATLAS 2AS CENTAUR R/B 3.5 05:53:46 10° WSW 06:01:07 41° NW 06:08:38 10° NNE
Cosmos 2154 Rocket 3.9 05:55:33 10° S 06:01:43 77° W 06:07:55 10° N
COSMO-SKYMED 1 2.9 05:58:05 10° SSE 06:02:22 69° ENE 06:06:41 10° N
IUS-9 SRM-1 3.6 06:00:32 12° SW 06:02:32 30° SSE 06:08:16 10° ESE
Helios 1A Rocket 3.0 06:03:09 10° NNE 06:07:18 85° E 06:11:26 10° SSW
CENTAUR R/B 3.9 06:00:14 10° NNW 06:08:22 58° ENE 06:16:56 10° SE
CZ-4B R/B 3.5 06:04:35 10° NNE 06:09:52 69° ESE 06:15:06 10° S
USA 238 DEB 3.9 06:04:25 10° NW 06:11:35 60° WSW 06:18:52 10° SSE
USA 238 3.9 06:04:31 10° NW 06:11:41 61° WSW 06:18:58 10° SSE
Cosmos 2184 Rocket 4.5 06:06:30 10° SW 06:12:05 36° WNW 06:17:46 10° NNW
Cosmos 1674 4.3 06:08:43 10° SSE 06:12:11 39° E 06:15:39 10° NNE
USA 116 4.4 06:10:57 10° SSE 06:15:11 60° ENE 06:18:55 10° N
Cosmos 1437 Rocket 3.2 06:12:09 10° S 06:15:54 64° E 06:19:39 10° NNE
Cosmos 1954 Rocket 4.0 06:12:17 10° SSW 06:17:31 70° WNW 06:22:44 10° NNE
COBE Rocket 3.9 06:13:00 10° S 06:17:53 74° W 06:22:57 10° NNW
Cosmos 1953 2.3 06:14:13 10° NNW 06:18:11 60° W 06:22:06 10° S
Centaur D AC-28 3.1 06:14:29 10° WSW 06:18:18 57° SSE 06:30:13 10° E
Okean O Rocket 1.6 06:16:37 10° N 06:21:02 80° WNW 06:25:22 10° SSW
Cosmos 2341 Rocket 4.1 06:15:15 10° S 06:21:32 88° E 06:27:47 10° N
Cosmos 1356 4.3 06:18:58 10° N 06:22:21 55° E 06:25:43 10° SSE
Centaur D AC-29 3.5 06:04:05 11° W 06:22:52 40° SW 06:27:34 10° SE
Cosmos 1726 3.3 06:19:39 10° N 06:23:12 46° E 06:26:43 10° SSE
Cosmos 1758 4.3 06:20:13 10° NNW 06:23:33 26° W 06:26:54 10° SSW
CZ-2C R/B 3.9 06:22:30 10° NNW 06:25:49 17° WNW 06:29:06 10° WSW
SJ-12 4.3 06:23:36 10° N 06:27:29 43° WNW 06:31:21 10° SW
Cosmos 1726 Rocket 3.5 06:23:47 10° N 06:28:05 75° W 06:32:22 10° S
RESURS DK-1 2.3 06:27:04 10° SSW 06:31:10 69° WNW 06:35:17 10° NNE
Nadezhda 3 Rocket 4.1 06:24:56 10° NNW 06:31:11 62° W 06:37:24 10° S
